This is the latest recevied weather packets stored in our database for station/object JA0ZJX-13. If no packets are shown the sender has not sent any weather packets the latest 10 day(s).
| Time | Temp. | Humidity | Pressure | Rain* | Wind** | Luminosity | Snow |
|---|---|---|---|---|---|---|---|
| 1777690418 | 21.11° C | 42% | 1007.7 hPa | 0 mm | - | 970 W/m² | - |
| 1777689807 | 21.11° C | 42% | 1007.7 hPa | 0 mm | - | 972 W/m² | - |
| 1777689221 | 21.11° C | 42% | 1007.7 hPa | 0 mm | - | 972 W/m² | - |
| 1777688609 | 20.56° C | 44% | 1007.8 hPa | 0 mm | - | 960 W/m² | - |
| 1777688019 | 20° C | 42% | 1007.7 hPa | 0 mm | - | 958 W/m² | - |
| 1777687408 | 20° C | 41% | 1007.7 hPa | 0 mm | - | 958 W/m² | - |
| 1777686821 | 20° C | 43% | 1007.7 hPa | 0 mm | - | 951 W/m² | - |
| 1777686211 | 19.44° C | 43% | 1007.8 hPa | 0 mm | - | 935 W/m² | - |
| 1777685621 | 19.44° C | 43% | 1007.7 hPa | 0 mm | - | 919 W/m² | - |
| 1777685014 | 18.89° C | 44% | 1007.6 hPa | 0 mm | - | 904 W/m² | - |
| 1777684423 | 18.89° C | 45% | 1007.7 hPa | 0 mm | - | 888 W/m² | - |
| 1777683813 | 18.89° C | 45% | 1007.6 hPa | 0 mm | - | 874 W/m² | - |
| 1777683222 | 18.33° C | 46% | 1007.4 hPa | 0 mm | - | 853 W/m² | - |
| 1777682615 | 18.33° C | 47% | 1007.1 hPa | 0 mm | - | 838 W/m² | - |
| 1777682005 | 17.22° C | 47% | 1007.1 hPa | 0 mm | - | 810 W/m² | - |
| 1777681415 | 17.22° C | 50% | 1007.2 hPa | 0 mm | - | 784 W/m² | - |
| 1777680824 | 17.22° C | 50% | 1007.3 hPa | 0 mm | - | 756 W/m² | - |
| 1777680218 | 16.67° C | 51% | 1007.4 hPa | 0 mm | - | 735 W/m² | - |
| 1777679605 | 16.11° C | 53% | 1007.3 hPa | 0 mm | - | 705 W/m² | - |
| 1777679014 | 15.56° C | 58% | 1007.3 hPa | 0 mm | - | 163 W/m² | - |
| 1777678408 | 15.56° C | 61% | 1007.3 hPa | 0 mm | - | 652 W/m² | - |
| 1777677818 | 15° C | 64% | 1007.3 hPa | 0 mm | - | 622 W/m² | - |
| 1777677206 | 14.44° C | 66% | 1007.3 hPa | 0 mm | - | 598 W/m² | - |
| 1777676614 | 13.89° C | 68% | 1007 hPa | 0 mm | - | 561 W/m² | - |
| 1777676007 | 13.89° C | 68% | 1007 hPa | 0 mm | - | 527 W/m² | - |
* Rain latest hour (hover to see other rain measurements)
** Current wind speed in m/s (hover to see current wind gust speed)